Location: Bucquoy
(50.1391°N, 2.7097°E)
Time: 22:32:07
(UTC+00:00)

STARLINK-2567 - Pass Details

Date: 06 May 2021
Orbit: 348 x 351 km, 53.1° (Epoch: 21 June)

Event Time Altitude Azimuth Distance (km) Brightness Sun altitude
Exits shadow 01:21:43 33° 101° (E) 665 4.1 -20.0°
Drops below altitude 10° 01:23:33 10° 106° (ESE) 1,380 5.8 -19.9°
Enters shadow 02:43:34 -19° 299° (WNW) 5,184 8.5 -12.7°
